Location: *
(58.4167°N, 22.5000°E)
Time: 21:20:44
(UTC+00:00)

RESURS DK-1 - Pass Details

Date: 22 September 2019
Orbit: 557 x 561 km, 69.9° (Epoch: 14 October)

Event Time Altitude Azimuth Distance (km) Brightness Sun altitude
Rises 19:20:21 0° 316° (NW) 2,761 7.4 -21.3°
Reaches altitude 10° 19:22:51 10° 303° (WNW) 1,859 6.2 -21.6°
Maximum altitude 19:26:14 25° 248° (WSW) 1,164 4.2 -21.9°
Enters shadow 19:27:47 20° 215° (SW) 1,336 4.2 -22.1°
